Weather History for Montevideo, MN

Change the Weather History Date:

Wednesday, May 13, 2009

  Actual Average Record
Temperature  
Mean Temperature 64 °F -  
Max Temperature 71 °F 69 °F 111 °F (1997)
Min Temperature 57 °F 42 °F 26 °F (1997)
Degree Days  
Heating Degree Days 1    
Growing Degree Days 14 (Base 50)    
Moisture  
Dew Point 46 °F    
Average Humidity 61    
Maximum Humidity 94    
Minimum Humidity 15    
Precipitation  
Precipitation 0.03 in - - ()
Sea Level Pressure  
Sea Level Pressure 29.55 in    
Wind  
Wind Speed 7 mph (WNW)    
Max Wind Speed 26 mph    
Max Gust Speed 36 mph    
Visibility 9 miles    
Events Rain , Thunderstorm    
Averages and records for this station are not official NWS values.
T = Trace of Precipitation, MM = Missing Value Source: NWS Daily Summary

Daily Weather History Graph

Daily Weather History Graph

Search for Another Location

Airport:

Trip Planner

Search our weather history database for the weather conditions in past years. The results will help you decide how hot, cold, wet, or windy it might be!

Date:

Astronomy

May. 13, 2009 Rise Set
Actual Time 5:55 AM CDT 8:43 PM CDT
Civil Twilight 5:21 AM CDT 9:17 PM CDT
Nautical Twilight 4:39 AM CDT 10:00 PM CDT
Astronomical Twilight 3:48 AM CDT 10:50 PM CDT
Moon 12:27 AM CDT (5/13) 9:01 AM CDT (5/13)
Length of Visible Light 15h 55m
Length of Day
14h 47m
Waning Gibbous, 82% of the Moon is Illuminated
May 13
Waning Gibbous
May 17
Last Quarter
May 24
New
May 30
First Quarter
Jun 7
Full

Hourly Weather History & Observations

Time (CDT) Temp. Dew Point Humidity Pressure Visibility Wind Dir Wind Speed Gust Speed Precip Events Conditions
12:15 AM 60.8 °F 55.4 °F 82% 29.53 in 10.0 mi SSW 11.5 mph 18.4 mph N/A   Overcast
12:34 AM 60.8 °F 55.4 °F 82% 29.55 in 10.0 mi Calm Calm - N/A Thunderstorm Overcast
12:54 AM 60.8 °F 57.2 °F 88% 29.55 in 5.0 mi Calm Calm - N/A   Light Drizzle
1:15 AM 60.8 °F 57.2 °F 88% 29.54 in 5.0 mi Calm Calm - N/A Rain Light Rain
1:34 AM 59.0 °F 57.2 °F 94% 29.53 in 10.0 mi Calm Calm - N/A Rain Light Rain
1:54 AM 60.8 °F 57.2 °F 88% 29.53 in 10.0 mi Calm Calm - N/A Rain Light Rain
2:14 AM 60.8 °F 57.2 °F 88% 29.52 in 10.0 mi Calm Calm - N/A Rain Light Rain
2:34 AM 59.0 °F 57.2 °F 94% 29.50 in 7.0 mi Calm Calm - N/A Rain Light Rain
2:54 AM 59.0 °F 57.2 °F 94% 29.47 in 7.0 mi South 11.5 mph 16.1 mph 0.01 in Rain Light Rain
3:14 AM 59.0 °F 57.2 °F 94% 29.47 in 7.0 mi SW 8.1 mph 21.9 mph N/A Rain Light Rain
3:34 AM 60.8 °F 59.0 °F 94% 29.46 in 7.0 mi SSW 15.0 mph 21.9 mph 0.01 in Rain Light Rain
3:54 AM 60.8 °F 59.0 °F 94% 29.47 in 7.0 mi SSW 13.8 mph 18.4 mph 0.02 in   Mostly Cloudy
4:14 AM 60.8 °F 59.0 °F 94% 29.47 in 7.0 mi Calm Calm - N/A   Overcast
4:34 AM 60.8 °F 57.2 °F 88% 29.48 in 7.0 mi SW 10.4 mph - N/A   Overcast
4:54 AM 60.8 °F 57.2 °F 88% 29.48 in 7.0 mi Calm Calm - N/A   Scattered Clouds
5:14 AM 60.8 °F 57.2 °F 88% 29.49 in 7.0 mi Calm Calm - N/A   Mostly Cloudy
5:34 AM 60.8 °F 59.0 °F 94% 29.50 in 10.0 mi Calm Calm - N/A   Overcast
5:54 AM 60.8 °F 57.2 °F 88% 29.49 in 10.0 mi Calm Calm - N/A   Mostly Cloudy
6:34 AM 60.8 °F 57.2 °F 88% 29.52 in 10.0 mi Calm Calm - N/A   Clear
6:54 AM 60.8 °F 57.2 °F 88% 29.52 in 10.0 mi Calm Calm - N/A   Clear
7:14 AM 59.0 °F 55.4 °F 88% 29.53 in 10.0 mi Calm Calm - N/A   Clear
7:34 AM 57.2 °F 53.6 °F 88% 29.54 in 10.0 mi Calm Calm - N/A   Clear
7:54 AM 57.2 °F 53.6 °F 88% 29.55 in 10.0 mi Calm Calm - N/A   Clear
8:14 AM 57.2 °F 53.6 °F 88% 29.55 in 10.0 mi WNW 9.2 mph - N/A   Clear
8:34 AM 59.0 °F 53.6 °F 82% 29.56 in 10.0 mi Calm Calm - N/A   Clear
8:54 AM 59.0 °F 53.6 °F 82% 29.55 in 10.0 mi Calm Calm - N/A   Clear
9:14 AM 60.8 °F 53.6 °F 77% 29.55 in 10.0 mi WNW 10.4 mph 17.3 mph N/A   Clear
9:34 AM 60.8 °F 51.8 °F 72% 29.55 in 10.0 mi WNW 10.4 mph 16.1 mph N/A   Clear
9:54 AM 62.6 °F 51.8 °F 68% 29.55 in 10.0 mi Calm Calm - N/A   Clear
10:14 AM 64.4 °F 51.8 °F 64% 29.56 in 10.0 mi WNW 11.5 mph 17.3 mph N/A   Clear
10:35 AM 64.4 °F 50.0 °F 59% 29.55 in 10.0 mi Calm Calm - N/A   Clear
10:54 AM 66.2 °F 50.0 °F 56% 29.55 in 10.0 mi NW 13.8 mph 19.6 mph N/A   Clear
11:14 AM 64.4 °F 50.0 °F 59% 29.54 in 10.0 mi NNW 10.4 mph 19.6 mph N/A   Clear
11:35 AM 66.2 °F 48.2 °F 52% 29.54 in 10.0 mi NW 8.1 mph 19.6 mph N/A   Clear
11:54 AM 66.2 °F 48.2 °F 52% 29.54 in 10.0 mi Calm Calm - N/A   Clear
12:14 PM 69.8 °F 46.4 °F 43% 29.54 in 10.0 mi NW 6.9 mph 19.6 mph N/A   Clear
12:34 PM 68.0 °F 44.6 °F 43% 29.55 in 10.0 mi Calm Calm - N/A   Scattered Clouds
12:54 PM 69.8 °F 42.8 °F 38% 29.55 in 10.0 mi NNW 6.9 mph 17.3 mph N/A   Scattered Clouds
1:14 PM 71.6 °F 39.2 °F 31% 29.55 in 10.0 mi WNW 10.4 mph 25.3 mph N/A   Clear
1:34 PM 71.6 °F 37.4 °F 29% 29.55 in 10.0 mi WNW 6.9 mph 19.6 mph N/A   Clear
1:54 PM 71.6 °F 37.4 °F 29% 29.56 in - NW 10.4 mph 23.0 mph N/A   Clear
2:14 PM 71.6 °F 35.6 °F 27% 29.55 in 10.0 mi WNW 12.7 mph 23.0 mph N/A   Unknown
2:34 PM 71.6 °F 37.4 °F 29% 29.56 in 10.0 mi WNW 13.8 mph 20.7 mph N/A   Clear
2:54 PM 71.6 °F 35.6 °F 27% 29.56 in 10.0 mi WNW 13.8 mph 26.5 mph N/A   Scattered Clouds
3:14 PM 71.6 °F 33.8 °F 25% 29.57 in 10.0 mi WNW 18.4 mph 25.3 mph N/A   Scattered Clouds
3:35 PM 69.8 °F 33.8 °F 27% 29.57 in 10.0 mi WNW 20.7 mph 31.1 mph N/A   Scattered Clouds
3:54 PM 69.8 °F 30.2 °F 23% 29.57 in 10.0 mi NW 18.4 mph 35.7 mph N/A   Scattered Clouds
4:14 PM 69.8 °F 30.2 °F 23% 29.58 in 10.0 mi WNW 20.7 mph 29.9 mph N/A   Scattered Clouds
4:34 PM 68.0 °F 28.4 °F 23% 29.58 in 10.0 mi NW 23.0 mph 34.5 mph N/A   Mostly Cloudy
4:54 PM 69.8 °F 28.4 °F 21% 29.60 in 10.0 mi NW 26.5 mph 34.5 mph N/A   Scattered Clouds
5:14 PM 66.2 °F 28.4 °F 24% 29.60 in 10.0 mi NW 20.7 mph 29.9 mph N/A   Scattered Clouds
5:35 PM 66.2 °F 24.8 °F 21% 29.62 in 10.0 mi NW 19.6 mph 29.9 mph N/A   Scattered Clouds
5:54 PM 64.4 °F 23.0 °F 21% 29.63 in 10.0 mi NW 23.0 mph 34.5 mph N/A   Scattered Clouds
6:14 PM 64.4 °F 21.2 °F 19% 29.63 in 10.0 mi NW 19.6 mph 25.3 mph N/A   Clear
6:35 PM 64.4 °F 15.8 °F 15% 29.64 in 10.0 mi NW 19.6 mph 32.2 mph N/A   Clear
6:54 PM 64.4 °F 19.4 °F 18% 29.64 in 10.0 mi WNW 18.4 mph 34.5 mph N/A   Clear
7:14 PM 62.6 °F 24.8 °F 24% 29.64 in 10.0 mi WNW 18.4 mph 33.4 mph N/A   Clear
7:34 PM 62.6 °F 21.2 °F 20% 29.64 in 10.0 mi WNW 17.3 mph 29.9 mph N/A   Clear
7:54 PM 60.8 °F 21.2 °F 22% 29.64 in 10.0 mi WNW 16.1 mph 25.3 mph N/A   Clear
8:14 PM 60.8 °F 24.8 °F 25% 29.64 in 10.0 mi WNW 17.3 mph 27.6 mph N/A   Clear
8:34 PM 59.0 °F 26.6 °F 29% 29.64 in 10.0 mi WNW 15.0 mph 23.0 mph N/A   Clear
8:54 PM 57.2 °F 28.4 °F 33% 29.65 in 10.0 mi WNW 12.7 mph 17.3 mph N/A   Clear
9:14 PM 57.2 °F 26.6 °F 31% 29.66 in 10.0 mi WNW 11.5 mph 18.4 mph N/A   Clear
9:35 PM 55.4 °F 28.4 °F 36% 29.67 in 10.0 mi WNW 11.5 mph 19.6 mph N/A   Clear
9:54 PM 55.4 °F 30.2 °F 38% 29.68 in 10.0 mi NW 17.3 mph 29.9 mph N/A   Scattered Clouds
10:14 PM 53.6 °F 35.6 °F 51% 29.70 in 10.0 mi NW 18.4 mph 34.5 mph N/A   Clear
10:34 PM 53.6 °F 35.6 °F 51% 29.71 in 10.0 mi NW 20.7 mph 32.2 mph N/A   Clear
10:54 PM 51.8 °F 35.6 °F 54% 29.72 in 10.0 mi NW 16.1 mph 28.8 mph N/A   Clear
11:14 PM 51.8 °F 37.4 °F 58% 29.73 in 10.0 mi NW 18.4 mph 27.6 mph N/A   Clear
11:35 PM 50.0 °F 35.6 °F 58% 29.75 in 10.0 mi NW 16.1 mph 24.2 mph N/A   Clear
11:54 PM 50.0 °F 37.4 °F 62% 29.76 in 10.0 mi NW 12.7 mph 26.5 mph N/A   Mostly Cloudy